Red Bluff, CA

4:55 PM PDT on October 23, 2019 (GMT -0700)
Red Bluff Municipal

Weather History for KRBL - September, 2019

Change the Weather History Date:

Monday, September 16, 2019

  Actual Average Record
Temperature  
Mean Temperature 70 °F -  
Max Temperature 80 °F 88 °F 105 °F (1937)
Min Temperature 59 °F 58 °F 46 °F (2006)
Cooling Degree Days 4    
Growing Degree Days 20 (Base 50)    
Moisture  
Dew Point 49 °F    
Average Humidity 53    
Maximum Humidity 84    
Minimum Humidity 18    
Precipitation  
Precipitation 0.12 in - - ()
Sea Level Pressure  
Sea Level Pressure 29.86 in    
Wind  
Wind Speed 11 mph (West)    
Max Wind Speed 22 mph    
Max Gust Speed 29 mph    
Visibility 10 miles    
Events Rain    
Averages and records for this station are not official NWS values.
T = Trace of Precipitation, MM = Missing Value Source: NWS Daily Summary

Daily Weather History Graph

Daily Weather History Graph

Search for Another Location

Airport or City:

Astronomy

Sep. 16, 2019 Rise Set
Actual Time 6:50 AM PDT 7:16 PM PDT
Civil Twilight 6:23 AM PDT 7:43 PM PDT
Nautical Twilight 5:51 AM PDT 8:15 PM PDT
Astronomical Twilight 5:18 AM PDT 8:48 PM PDT
Moon 8:53 PM PDT (9/16) 9:02 AM PDT (9/16)
Length of Visible Light 13h 19m
Length of Day
12h 25m
Waning Gibbous, 94% of the Moon is Illuminated
Sep 16
Waning Gibbous
Sep 21
Last Quarter
Sep 28
New
Oct 5
First Quarter
Oct 13
Full

Hourly Weather History & Observations

Time (PDT) Temp. Dew Point Humidity Pressure Visibility Wind Dir Wind Speed Gust Speed Precip Events Conditions
12:54 AM 70.0 °F 54.0 °F 57% 29.73 in 10.0 mi South 19.6 mph 24.2 mph N/A   Clear
1:54 AM 69.1 °F 55.0 °F 61% 29.73 in 10.0 mi SSE 21.9 mph 28.8 mph N/A   Clear
2:54 AM 66.9 °F 57.9 °F 73% 29.78 in 10.0 mi SW 3.5 mph - 0.01 in   Overcast
3:54 AM 66.0 °F 59.0 °F 78% 29.75 in 10.0 mi SE 12.7 mph - 0.08 in   Overcast
4:33 AM 66.0 °F 59.0 °F 78% 29.80 in 10.0 mi West 8.1 mph - 0.00 in   Overcast
4:54 AM 64.9 °F 60.1 °F 84% 29.80 in 5.0 mi WSW 5.8 mph - 0.02 in Rain Rain
5:12 AM 64.9 °F 60.1 °F 84% 29.80 in 10.0 mi SSW 6.9 mph - 0.01 in Rain Light Rain
5:17 AM 64.9 °F 57.9 °F 78% 29.80 in 10.0 mi SSW 5.8 mph - 0.01 in Rain Light Rain
5:54 AM 64.9 °F 59.0 °F 81% 29.79 in 10.0 mi South 6.9 mph - 0.01 in Rain Light Rain
6:54 AM 63.0 °F 55.0 °F 75% 29.79 in 10.0 mi South 8.1 mph - 0.00 in   Overcast
7:54 AM 60.1 °F 55.0 °F 83% 29.82 in 10.0 mi East 11.5 mph - N/A   Overcast
8:54 AM 61.0 °F 53.1 °F 75% 29.83 in 10.0 mi ESE 5.8 mph - N/A   Clear
9:54 AM 64.9 °F 54.0 °F 68% 29.84 in 10.0 mi East 3.5 mph - N/A   Clear
10:54 AM 69.1 °F 51.1 °F 53% 29.85 in 10.0 mi Variable 3.5 mph - N/A   Clear
11:54 AM 73.9 °F 43.0 °F 33% 29.85 in 10.0 mi NW 13.8 mph 24.2 mph N/A   Mostly Cloudy
12:54 PM 73.9 °F 39.9 °F 29% 29.87 in 10.0 mi NNW 10.4 mph 19.6 mph N/A   Scattered Clouds
1:54 PM 78.1 °F 39.0 °F 25% 29.87 in 10.0 mi NNW 11.5 mph - N/A   Clear
2:54 PM 78.1 °F 37.9 °F 24% 29.87 in 10.0 mi NNW 17.3 mph 23.0 mph N/A   Clear
3:54 PM 75.9 °F 39.0 °F 26% 29.88 in 10.0 mi WNW 12.7 mph 23.0 mph N/A   Mostly Cloudy
4:54 PM 75.9 °F 41.0 °F 29% 29.89 in 10.0 mi West 15.0 mph 23.0 mph N/A   Mostly Cloudy
5:54 PM 73.9 °F 41.0 °F 30% 29.91 in 10.0 mi West 10.4 mph - N/A   Partly Cloudy
6:54 PM 72.0 °F 42.1 °F 34% 29.92 in 10.0 mi WNW 10.4 mph - N/A   Clear
7:54 PM 69.1 °F 42.1 °F 38% 29.94 in 10.0 mi WNW 8.1 mph - N/A   Clear
8:54 PM 66.9 °F 43.0 °F 42% 29.96 in 10.0 mi NW 5.8 mph - N/A   Clear
9:54 PM 66.0 °F 43.0 °F 43% 29.97 in 10.0 mi WNW 5.8 mph - N/A   Clear
10:54 PM 64.0 °F 44.1 °F 48% 29.98 in 10.0 mi WNW 3.5 mph - N/A   Clear
11:54 PM 62.1 °F 45.0 °F 53% 30.00 in 10.0 mi North 5.8 mph - N/A   Clear